This is the latest recevied weather packets stored in our database for station/object W5GMO. If no packets are shown the sender has not sent any weather packets the latest 10 day(s).
| Time | Temp. | Humidity | Pressure | Rain* | Wind** | Luminosity | Snow |
|---|---|---|---|---|---|---|---|
| 1777466314 | 13.33° C | 68% | 1014.7 hPa | 0 mm | - | 65 W/m² | - |
| 1777466011 | 13.33° C | 68% | 1014.6 hPa | 0 mm | - | 67 W/m² | - |
| 1777465707 | 13.33° C | 68% | 1014.8 hPa | 0 mm | - | 72 W/m² | - |
| 1777465403 | 13.33° C | 68% | 1014.8 hPa | 0 mm | - | 55 W/m² | - |
| 1777465101 | 13.33° C | 68% | 1015 hPa | 0 mm | - | 42 W/m² | - |
| 1777464797 | 13.33° C | 67% | 1014.9 hPa | 0 mm | - | 47 W/m² | - |
| 1777464493 | 13.33° C | 67% | 1014.7 hPa | 0 mm | - | 49 W/m² | - |
| 1777463890 | 13.33° C | 65% | 1015 hPa | 0 mm | - | 50 W/m² | - |
| 1777463286 | 13.33° C | 65% | 1015 hPa | 0 mm | - | 34 W/m² | - |
| 1777462678 | 13.33° C | 65% | 1015 hPa | 0 mm | - | 36 W/m² | - |
| 1777462373 | 13.33° C | 65% | 1015.2 hPa | 0 mm | - | 31 W/m² | - |
| 1777462070 | 13.33° C | 66% | 1015 hPa | 0 mm | - | 30 W/m² | - |
| 1777461767 | 12.78° C | 66% | 1015.2 hPa | 0 mm | - | 27 W/m² | - |
| 1777461462 | 12.78° C | 66% | 1015.1 hPa | 0 mm | - | 20 W/m² | - |
| 1777461159 | 12.78° C | 66% | 1015.3 hPa | 0 mm | - | 14 W/m² | - |
| 1777460854 | 12.78° C | 67% | 1015.3 hPa | 0 mm | - | 13 W/m² | - |
| 1777460550 | 12.78° C | 67% | 1015.1 hPa | 0 mm | - | 12 W/m² | - |
| 1777460246 | 12.78° C | 67% | 1015 hPa | 0 mm | - | 11 W/m² | - |
| 1777459943 | 12.78° C | 67% | 1014.9 hPa | 0 mm | - | 12 W/m² | - |
| 1777459640 | 12.78° C | 67% | 1015 hPa | 0 mm | - | 11 W/m² | - |
| 1777459337 | 12.78° C | 67% | 1014.9 hPa | 0 mm | - | 9 W/m² | - |
| 1777459035 | 12.78° C | 67% | 1014.7 hPa | 0 mm | - | 8 W/m² | - |
| 1777458732 | 12.78° C | 66% | 1014.9 hPa | 0 mm | - | 6 W/m² | - |
| 1777458429 | 12.78° C | 66% | 1014.9 hPa | 0 mm | - | 4 W/m² | - |
| 1777458125 | 12.78° C | 66% | 1015.1 hPa | 0 mm | - | 2 W/m² | - |
* Rain latest hour (hover to see other rain measurements)
** Current wind speed in m/s (hover to see current wind gust speed)